ISS (ZARYA) 1 25544U 98067A 26178.25148564 .00007401 00000+0 14016-3 0 9995 2 25544 51.6322 250.2737 0004284 237.3448 122.7128 15.49452150573314 POISK 1 36086U 09060A 26178.25148564 .00007401 00000+0 14016-3 0 9993 2 36086 51.6322 250.2737 0004284 237.3448 122.7128 15.49452150571630 CSS (TIANHE) 1 48274U 21035A 26178.27740249 .00022896 00000+0 26515-3 0 9993 2 48274 41.4688 260.5778 0008136 162.4826 197.6295 15.61248881294749 ISS (NAUKA) 1 49044U 21066A 26178.25148564 .00007401 00000+0 14016-3 0 9991 2 49044 51.6322 250.2737 0004284 237.3448 122.7128 15.49452150571683 FREGAT DEB 1 49271U 11037PF 26174.72777939 .00007325 00000+0 12644-1 0 9990 2 49271 51.6248 342.2478 0899580 296.6074 54.5366 12.42164012225869 CSS (WENTIAN) 1 53239U 22085A 26178.27740249 .00022896 00000+0 26515-3 0 9996 2 53239 41.4688 260.5778 0008136 162.4826 197.6295 15.61248881288233 CSS (MENGTIAN) 1 54216U 22143A 26178.27740249 .00022896 00000+0 26515-3 0 9997 2 54216 41.4688 260.5778 0008136 162.4826 197.6295 15.61248881295417 HRC MONOBLOCK CAMERA 1 66052U 98067XR 26178.41867543 .00082704 00000+0 53153-3 0 9991 2 66052 51.6213 226.5608 0002667 351.1614 8.9338 15.75493112 39618 SZ-21 MODULE 1 66515U 25246C 26178.47610451 .00048253 00000+0 28484-3 0 9994 2 66515 41.4717 243.2050 0004974 73.8783 286.2609 15.77281259 35362 SOYUZ-MS 28 1 66664U 25275A 26178.50947090 .00006280 00000+0 12016-3 0 9995 2 66664 51.6322 248.9966 0004278 238.4942 121.5629 15.49454046643434 DUPLEX 1 66906U 98067XS 26178.41049610 .00037900 00000+0 40795-3 0 9992 2 66906 51.6259 237.8183 0002719 264.1463 95.9222 15.63329644 32258 ISS OBJECT XY 1 66912U 98067XY 26178.37283719 .01620462 22266-2 11768-2 0 9994 2 66912 51.6090 219.2996 0009239 354.5021 5.5892 16.15537991 32481 KNACKSAT-2 1 67683U 98067XZ 26178.46927797 .00048531 00000+0 57112-3 0 9994 2 67683 51.6278 242.7251 0008624 261.3976 98.6040 15.60876135 21886 CORAL 1 67684U 98067YA 26178.45255777 .00251164 00000+0 12409-2 0 9993 2 67684 51.6192 235.0438 0009307 314.9905 45.0342 15.80756487 21981 GXIBA-1 1 67685U 98067YB 26178.46038341 .00058202 00000+0 63682-3 0 9999 2 67685 51.6259 241.9083 0009458 259.9122 100.0805 15.62672627 21893 UITMSAT-2 1 67686U 98067YC 26178.44939728 .00083200 00000+0 78334-3 0 9993 2 67686 51.6250 240.3317 0004806 264.1320 95.9128 15.66360518 21918 LEOPARD 1 67687U 98067YD 26178.42647934 .00051648 00000+0 58226-3 0 9996 2 67687 51.6282 242.4493 0005257 244.5003 115.5447 15.61990397 21803 HMU-SAT2 1 67688U 98067YE 26178.44982362 .00070216 00000+0 71129-3 0 9995 2 67688 51.6269 241.0958 0004892 255.7178 104.3274 15.64596418 21826 CREW DRAGON 12 1 67796U 26031A 26178.50947090 .00006280 00000+0 12016-3 0 9993 2 67796 51.6322 248.9966 0004278 238.4942 121.5629 15.49454046625701 PROGRESS-MS 33 1 68319U 26058A 26178.50947090 .00006280 00000+0 12016-3 0 9994 2 68319 51.6322 248.9966 0004278 238.4942 121.5629 15.49454046661163 CYGNUS NG-24 1 68689U 26079A 26178.25148564 .00007401 00000+0 14016-3 0 9996 2 68689 51.6322 250.2737 0004284 237.3448 122.7128 15.49452150678856 PROGRESS-MS 34 1 68837U 26093A 26178.25148564 .00007401 00000+0 14016-3 0 9997 2 68837 51.6322 250.2737 0004284 237.3448 122.7128 15.49452150696581 TIANZHOU-10 1 69049U 26102A 26178.27740249 .00022896 00000+0 26515-3 0 9996 2 69049 41.4688 260.5778 0008136 162.4826 197.6295 15.61248881 7519 SHENZHOU-23 (SZ-23) 1 69180U 26113A 26178.27740249 .00022896 00000+0 26515-3 0 9994 2 69180 41.4688 260.5778 0008136 162.4826 197.6295 15.61248881295143